Flag for Canada Weather past 2 weeks in Clarington, Ontario, Canada

Now
70 °F

Mostly cloudy.


Feels Like: 70 °F
Forecast: 52 / 68 °F
Wind: 9 mph from Southwest

Location: Peterborough Airport

Current Time: Sep 21, 2014 at 12:38:26 PM

Latest Report: Sep 21, 2014 at 12:00 PM


Visibility: 9 mi

Pressure: 29.51 "Hg

Humidity: 88%

Dew point: 66 °F

Location of ClaringtonLocation

Historic Weather in Clarington — Graph

°F

Clarington temperature yesterday

Maximum temperature yesterday: 72 °F (at 3:00 PM)
Minimum temperature yesterday: 37 °F (at 12:00 AM)
Average temperature yesterday: 58 °F

Past Weeks' High & Low Weather Summary

 TemperatureHumidityPressure
High73 °F (Sep 8, 2:00 PM)100% (Sep 8, 12:00 AM)30.39 "Hg (Sep 8, 12:00 AM)
Low32 °F (Sep 14, 6:47 AM)33% (Sep 8, 4:00 PM)29.51 "Hg (Sep 11, 4:02 AM)
Average54 °F83%30.08 "Hg
* Reported Sep 6 11:00 AM — Sep 21 11:00 AM, Clarington, Weather by CustomWeather, © 2014

Note: Actual official high and low records may vary slightly from our data, if they occured in-between our weather recording intervals... More about our weather records

Advertising

Clarington weather history for previous 24 hours

 ConditionsComfort  
Time TempWeatherWind HumidityBarometerVisibility
11:00 AM
Sep 21
66 °FRain. Fog.15 mph88%29.52 "Hg5 mi
10:00 AM64 °FStrong thunderstorms. Fog.5 mph94%29.56 "Hg2 mi
9:00 AM63 °FLight rain. Fog.5 mph100%29.59 "Hg4 mi
8:00 AM64 °FOvercast.3 mph88%29.63 "Hg9 mi
7:00 AM63 °FPartly cloudy.6 mph94%29.66 "Hg9 mi
6:00 AM63 °FPassing clouds.8 mph94%29.66 "Hg9 mi
5:00 AM63 °FClear.5 mph94%29.67 "Hg9 mi
4:00 AM66 °FMostly cloudy.6 mph88%29.68 "Hg9 mi
3:48 AM66 °FMostly cloudy.7 mph88%29.68 "Hg9 mi
3:00 AM66 °FMostly cloudy.9 mph88%29.68 "Hg9 mi
2:55 AM66 °FMostly cloudy.9 mph88%29.69 "Hg9 mi
2:04 AM66 °FLight rain. Overcast.9 mph88%29.70 "Hg9 mi
1:54 AM66 °FMostly cloudy.9 mph88%29.70 "Hg9 mi
1:00 AM64 °FOvercast.6 mph94%29.72 "Hg9 mi
12:00 AM64 °FMostly cloudy.9 mph94%29.75 "Hg9 mi
11:00 PM
Sep 20
64 °FOvercast.12 mph94%29.77 "Hg9 mi
10:00 PM66 °FOvercast.10 mph88%29.79 "Hg9 mi
9:00 PM66 °FOvercast.8 mph88%29.80 "Hg9 mi
8:00 PM70 °FMostly cloudy.7 mph73%29.80 "Hg9 mi
7:00 PM68 °FOvercast.10 mph73%29.81 "Hg9 mi
6:55 PM68 °FOvercast.12 mph73%29.82 "Hg9 mi
6:00 PM70 °FOvercast.10 mph69%29.84 "Hg9 mi
5:02 PM70 °FCloudy.14 mph73%29.85 "Hg9 mi
4:46 PM70 °FRain. More clouds than sun.8 mph73%29.86 "Hg9 mi
4:00 PM72 °FMostly cloudy.13 mph69%29.88 "Hg9 mi
3:00 PM72 °FMostly cloudy.18 mph65%29.87 "Hg9 mi
2:00 PM70 °FBroken clouds.15 mph69%29.88 "Hg9 mi
1:00 PM70 °FPartly sunny.14 mph69%29.91 "Hg9 mi
Weather by CustomWeather, © 2014

See weather overviewHow to use our weather pages